Regional Weather Roundup
Issued by NWS Sterling, VA

Home | Current Version | Previous Version | Text Only | Print | Product List | Glossary On
Versions: 1 2 3 4 5 6 7 8 9 10 11 12 13 14 15 16 17 18 19 20 21 22 23 24 25 26 27 28 29 30 31 32 33 34 35 36 37 38 39 40 41 42 43 44 45 46 47 48 49
000
ASUS41 KLWX 310010
RWRLWX

REGIONAL WEATHER ROUNDUP
NATIONAL WEATHER SERVICE BALTIMORE MD/WASHINGTON DC
800 PM EDT SUN AUG 30 2015

Note: "FAIR" indicates few or no clouds below 12,000 feet
with no significant weather and/or obstructions to visibility.
 TC=TEMPERATURE CELSIUS

 * =Non NWS site. Station does not report precipitation (e.g. rain,
    snow, etc.), thunder, or fog.

DCZ001-MDZ009-015-VAZ040>042-051-053>054-310100-
WASHINGTON METRO

CITY           SKY/WX    TMP DP  RH WIND       PRES   REMARKS
WASHINGTON NAT CLOUDY    81  70  69 S6        30.07S
DULLES         CLOUDY    80  65  59 S5        30.06F
ANDREWS AFB    CLOUDY    79  67  66 S6        30.07R
FT BELVOIR     CLOUDY    76  71  86 CALM      30.06S
QUANTICO       CLOUDY    80  72  76 SW6       30.07S
COLLEGE PARK*  CLOUDY    82  64  54 CALM      30.06S
LEESBURG*      CLOUDY    81  70  69 S13       30.08R
MANASSAS*      CLEAR     79  70  73 CALM      30.06F
GAITHERSBURG*  CLOUDY    81  64  57 S3        30.11S

$$

MDZ006>007-011-014-310100-
BALTIMORE METRO

CITY           SKY/WX    TMP DP  RH WIND       PRES   REMARKS
BWI AIRPORT    CLOUDY    80  67  64 S6        30.05S
MD SCIENCE CTR   N/A     83  66  56 MISG      30.06R
MARTIN STATE   CLOUDY    81  73  78 S6        30.07R
ANNAPOLIS      CLOUDY    80  68  66 S5        30.06R
FORT MEADE*    CLOUDY    73  70  88 CALM      30.08S

$$

MDZ012-015-019>023-310100-
MARYLAND EASTERN SHORE

CITY           SKY/WX    TMP DP  RH WIND       PRES   REMARKS
OCEAN CITY     CLOUDY    78  66  66 SW8       30.10R
SALISBURY      CLOUDY    76  67  73 S5        30.09R
BAY BRIDGE AP*   N/A     79  66  65 S7        30.07R
CAMBRIDGE*     CLOUDY    79  64  61 S3        30.08R
EASTON*        CLOUDY    81  66  61 SW7       30.11S

$$

MDZ017>025-310100-
SOUTHERN MARYLAND

CITY           SKY/WX    TMP DP  RH WIND       PRES   REMARKS
PATUXENT RIVER CLOUDY    78  65  63 S8        30.08R
ST INIGOES     CLOUDY    79  65  62 S8        30.08R
LEONARDTOWN*   CLOUDY    79  63  57 CALM      30.10R

$$

MDZ003>005-310100-
NORTH CENTRAL MARYLAND

CITY           SKY/WX    TMP DP  RH WIND       PRES   REMARKS
FREDERICK*     CLEAR     81  70  69 S3        30.08S
HAGERSTOWN APT MOCLDY    83  64  52 S10       30.05F
WESTMINSTER*   CLOUDY    81  66  61 CALM      30.08S

$$

MDZ501>502-310100-
WESTERN MARYLAND

CITY           SKY/WX    TMP DP  RH WIND       PRES   REMARKS
OAKLAND*       MOCLDY    68  61  77 CALM      30.19S
CUMBERLAND*    MOCLDY    82  63  51 NW7       30.10R

$$

VAZ025>031-310100-
SHENANDOAH VALLEY

CITY           SKY/WX    TMP DP  RH WIND       PRES   REMARKS
WINCHESTER*    CLOUDY    81  63  54 S6        30.07S
FRONT ROYAL*   FAIR      79  63  57 CALM      30.07S
LURAY*         FAIR      79  61  53 SW6       30.10R
NEW MARKET*    FAIR      78  63  59 SW3       30.08S
STAUNTON*      CLOUDY    80  64  57 CALM      30.14R
WAYNESBORO*    MOCLDY    76  64  64 CALM      30.14R

$$

WVZ021-048>050-054>055-310100-
EASTERN WEST VIRGINIA PANHANDLE

CITY           SKY/WX    TMP DP  RH WIND       PRES   REMARKS
MARTINSBURG    MOCLDY    79  64  60 S6        30.06S
PETERSBURG*    RAIN      74  66  78 NW3       30.12R

$$

VAZ036>039-050-310100-
CENTRAL FOOTHILLS

CITY           SKY/WX    TMP DP  RH WIND       PRES   REMARKS
CHARLOTTESVILL CLOUDY    78  66  66 SW3       30.09S
CULPEPER*      CLOUDY    75  68  78 CALM      30.08S
ORANGE*        CLOUDY    79  66  65 S3        30.10R
GORDONSVILLE*  FAIR      74  71  88 CALM      30.08S
WARRENTON*     FAIR      79  69  70 CALM      30.07S

$$

VAZ055>057-310100-
NORTH AND CENTRAL PIEDMONT

CITY           SKY/WX    TMP DP  RH WIND       PRES   REMARKS
FREDERICKSBRG* CLOUDY    82  68  60 S8        30.07R
STAFFORD*      CLOUDY    76  70  82 SE3       30.11S

$$

NCZ024-NYZ072-PAZ021-071-VAZ022-071-310100-
OTHER REGIONAL OBSERVATIONS

CITY           SKY/WX    TMP DP  RH WIND       PRES   REMARKS
NEW YORK CITY  PTCLDY    82  66  58 CALM      30.04R
PHILADELPHIA   MOCLDY    84  65  52 SW12      30.05R
PITTSBURGH     MOCLDY    79  67  66 SW8       30.07S
ROANOKE        CLOUDY    77  66  68 SE6       30.15R
RICHMOND       CLOUDY    79  65  62 S5        30.09F
RALEIGH        CLOUDY    78  62  57 S3        30.12F

$$

ANZ530>537-310100-
MARINE OBSERVATIONS

STATION/POSITION TIME  TEMP    WIND        PRES
                       AIR SEA DIR/SP/G
                 (UTC) (F)     (DEG/KT/KT) (MB)
THOMAS PT LIGHT  NOT AVBL

$$



USA.gov is the U.S. government's official web portal to all federal, state and local government web resources and services.